Content
SEND FEEDBACK

Daily
Averages
Monthly
Summary
United States of America

STEAMBOAT SPRINGS, COLORADO


Home > North America > United States > Colorado
Elevation: 6917 feet     Latitude: 40 30N     Longitude: 106 50W

WEATHER
 
SELECT A DAY
Number of Records: 81,923;   Date Range: 1/3/95 - 7/9/14
 
SHARE

PRINT THIS DATA

[ ← Previous Day ]
WEATHER ALMANAC - AUGUST 21, 2013
[ Next Day → ]
[ °C ]   °F
Weather ElementAverageHighLow
Temperature69.2 °F86 °F (4:54 pm)52 °F (7:14 am)
Dewpoint36.4 °F43.9 °F (8:14 am)22.3 °F (4:34 pm)
Humidity36.2 %71 % (7:14 am)10 % (4:34 pm)
Barometer30.28 in30.33 in (10:14 am)30.21 in (5:54 pm)
Wind Speed3.5 mph16.1 mph (3:34 pm)
Wind Gust24.2 mph (4:14 pm)
Weather ElementAverage
Visibility10 mi
Wind DirectionESE (102.7 °)

Weather ElementTotal
Precipitation---
Cooling Degree Days4 (Base 65)
Growing Degree Days19 (Base 50)
Averaged from 71 records on August 21, 2013
WEATHER CONDITIONS BREAKOUT
WIND DIRECTION BREAKOUT
WEATHER BY HOUR - AUGUST 21, 2013
[ °C ]   °F
Local TimeTemperatureDewpointHumidityBarometerVisibilityWind DirectionWind SpeedGust SpeedPrecipitationEventsConditions
12:34 AM64.2 °F39.0 °F39 %30.29 in10.0 miCalmClear
12:54 AM62.2 °F40.3 °F44 %30.29 in10.0 miCalmClear
1:14 AM61.7 °F40.3 °F45 %30.29 in10.0 miCalmClear
1:34 AM59.9 °F41.2 °F50 %30.30 in10.0 miCalmClear
1:54 AM60.1 °F42.1 °F51 %30.30 in10.0 miCalmClear
2:14 AM58.8 °F41.9 °F53 %30.30 in10.0 miESE (110°)3.5 mphClear
2:34 AM59.0 °F42.4 °F54 %30.30 in10.0 miSE (130°)5.8 mphClear
2:54 AM57.9 °F42.1 °F56 %30.30 in10.0 miCalmClear
3:14 AM57.0 °F42.3 °F58 %30.30 in10.0 miCalmClear
3:34 AM57.4 °F42.4 °F57 %30.30 in10.0 miCalmClear
3:54 AM57.0 °F42.8 °F59 %30.30 in10.0 miCalmClear
4:14 AM55.0 °F43.0 °F64 %30.31 in10.0 miCalmClear
4:34 AM52.7 °F43.2 °F70 %30.32 in10.0 miCalmClear
4:54 AM54.0 °F43.3 °F67 %30.32 in10.0 miCalmMostly Cloudy
5:14 AM53.1 °F43.2 °F69 %30.32 in10.0 miSE (130°)3.5 mphScattered Clouds
5:34 AM52.9 °F43.2 °F70 %30.32 in10.0 miCalmClear
5:54 AM52.9 °F43.0 °F69 %30.32 in10.0 miCalmClear
6:14 AM53.8 °F42.6 °F66 %30.32 in10.0 miCalmClear
6:34 AM55.2 °F43.0 °F63 %30.32 in10.0 miEast (80°)5.8 mphClear
6:54 AM56.7 °F42.6 °F59 %30.31 in10.0 miCalmClear
7:14 AM52.0 °F43.0 °F71 %30.32 in10.0 miCalmClear
7:34 AM54.5 °F43.3 °F66 %30.32 in10.0 miCalmClear
7:54 AM56.3 °F43.3 °F62 %30.32 in10.0 miCalmClear
8:14 AM57.2 °F43.9 °F61 %30.32 in10.0 miCalmClear
8:34 AM58.5 °F43.7 °F58 %30.32 in10.0 miCalmClear
8:54 AM62.6 °F43.7 °F50 %30.32 in10.0 miCalmClear
9:14 AM64.8 °F43.2 °F45 %30.32 in10.0 miWNW (290°)3.5 mphClear
9:34 AM64.4 °F43.7 °F47 %30.32 in10.0 miCalmClear
9:54 AM65.7 °F43.3 °F44 %30.32 in10.0 miCalmClear
10:14 AM67.8 °F43.0 °F41 %30.33 in10.0 miCalmClear
10:34 AM69.6 °F43.3 °F39 %30.32 in10.0 miCalmClear
10:54 AM73.0 °F42.4 °F33 %30.32 in10.0 miCalmClear
11:14 AM74.8 °F40.6 °F29 %30.32 in10.0 miCalmClear
11:34 AM75.9 °F37.9 °F25 %30.32 in10.0 miWSW (240°)5.8 mphClear
11:54 AM77.7 °F37.8 °F24 %30.32 in10.0 miSW (220°)4.6 mphClear
12:14 PM78.1 °F33.4 °F20 %30.32 in10.0 miSW (220°)6.9 mphClear
12:34 PM79.0 °F33.4 °F19 %30.31 in10.0 miSSW (200°)6.9 mphClear
12:54 PM80.2 °F33.4 °F18 %30.30 in10.0 miSSW (200°)3.5 mphClear
1:14 PM81.1 °F32.4 °F17 %30.30 in10.0 miSSW (210°)11.5 mphClear
1:34 PM82.0 °F32.9 °F17 %30.29 in10.0 miSW (220°)11.5 mph18.4 mphClear
1:54 PM82.8 °F32.2 °F16 %30.28 in10.0 miSouth (190°)12.7 mph16.1 mphClear
2:14 PM83.1 °F31.5 °F15 %30.28 in10.0 miWest (270°)5.8 mph18.4 mphClear
2:34 PM83.8 °F27.9 °F13 %30.26 in10.0 miSSW (200°)4.6 mph17.3 mphClear
2:54 PM83.1 °F30.2 °F15 %30.26 in10.0 miSouth (190°)6.9 mphClear
3:14 PM85.6 °F26.1 °F11 %30.25 in10.0 miSouth (180°)5.8 mphClear
3:34 PM84.6 °F26.4 °F12 %30.24 in10.0 miWest (270°)16.1 mph23.0 mphClear
3:54 PM85.8 °F24.8 °F11 %30.24 in10.0 miWSW (250°)12.7 mph19.6 mphClear
4:14 PM84.0 °F24.1 °F11 %30.24 in10.0 miWSW (240°)13.8 mph24.2 mphClear
4:34 PM85.3 °F22.3 °F10 %30.23 in10.0 miSW (230°)15.0 mph19.6 mphClear
4:54 PM86.0 °F25.3 °F11 %30.22 in10.0 miWest (260°)10.4 mphClear
5:14 PM83.5 °F26.1 °F12 %30.22 in10.0 miWest (260°)10.4 mphClear
5:34 PM84.9 °F23.4 °F10 %30.22 in10.0 miWest (260°)9.2 mph17.3 mphClear
5:54 PM84.2 °F26.1 °F12 %30.21 in10.0 miSW (220°)5.8 mphClear
6:14 PM84.6 °F24.4 °F11 %30.21 in10.0 miNW (310°)4.6 mphClear
6:34 PM84.6 °F23.7 °F11 %30.21 in10.0 miWest (260°)9.2 mphClear
6:54 PM83.3 °F25.9 °F12 %30.21 in10.0 miWest (260°)8.1 mphClear
7:14 PM82.2 °F27.9 °F14 %30.22 in10.0 miWest (260°)6.9 mphClear
7:34 PM78.4 °F30.6 °F17 %30.22 in10.0 miWest (280°)8.1 mphClear
7:54 PM75.7 °F32.0 °F20 %30.23 in10.0 miNW (310°)4.6 mphClear
8:14 PM74.1 °F32.9 °F22 %30.23 in10.0 miNNW (340°)4.6 mphClear
8:34 PM73.4 °F32.2 °F22 %30.24 in10.0 miCalmClear
8:54 PM72.9 °F32.4 °F23 %30.24 in10.0 miCalmClear
9:14 PM71.4 °F33.1 °F24 %30.26 in10.0 miCalmClear
9:34 PM68.5 °F35.4 °F30 %30.27 in10.0 miCalmClear
9:54 PM67.1 °F34.9 °F30 %30.27 in10.0 miCalmClear
10:14 PM66.4 °F36.5 °F33 %30.28 in10.0 miCalmClear
10:34 PM64.6 °F37.2 °F36 %30.28 in10.0 miCalmClear
10:54 PM63.3 °F37.6 °F39 %30.28 in10.0 miCalmClear
11:14 PM63.7 °F37.4 °F38 %30.28 in10.0 miCalmClear
11:34 PM62.2 °F37.6 °F40 %30.29 in10.0 miCalmClear
11:54 PM62.2 °F37.8 °F40 %30.29 in10.0 miCalmClear
Hourly data recorded from KSBS, located miles away from Steamboat Springs, Colorado







STORIES FROM OUR PARTNERS